Wellsville, NY

11:39 PM EDT on September 22, 2019 (GMT -0400)
Wellsville Municipal-Tarantine

Weather History for KELZ - August, 2019

Change the Weather History Date:

Monday, August 19, 2019

  Actual Average (KDSV) Record (KDSV)
Temperature  
Mean Temperature 70 °F -  
Max Temperature 78 °F 79 °F 90 °F (1971)
Min Temperature 62 °F 55 °F 42 °F (1977)
Cooling Degree Days 4    
Growing Degree Days 20 (Base 50)    
Moisture  
Dew Point 62 °F    
Average Humidity 78    
Maximum Humidity 100    
Minimum Humidity 62    
Precipitation  
Precipitation 0.00 in - - ()
Sea Level Pressure  
Sea Level Pressure 30.05 in    
Wind  
Wind Speed 7 mph ()    
Max Wind Speed 16 mph    
Max Gust Speed 23 mph    
Visibility 9.4 miles    
Events Rain    
Averages and records for this station are not official NWS values.
T = Trace of Precipitation, MM = Missing Value Source: Averaged Metar Reports

Daily Weather History Graph

Daily Weather History Graph

Search for Another Location

Airport or City:

Astronomy

Aug. 19, 2019 Rise Set
Actual Time 6:23 AM EDT 8:06 PM EDT
Civil Twilight 5:53 AM EDT 8:36 PM EDT
Nautical Twilight 5:17 AM EDT 9:12 PM EDT
Astronomical Twilight 4:38 AM EDT 9:51 PM EDT
Moon 10:23 PM EDT (8/19) 10:06 AM EDT (8/19)
Length of Visible Light 14h 42m
Length of Day
13h 43m
Waning Gibbous, 85% of the Moon is Illuminated
Aug 19
Waning Gibbous
Aug 23
Last Quarter
Aug 30
New
Sep 5
First Quarter
Sep 14
Full

Hourly Weather History & Observations

Time (EDT) Temp. Dew Point Humidity Pressure Visibility Wind Dir Wind Speed Gust Speed Precip Events Conditions
12:56 AM 64.0 °F 59.0 °F 84% 29.97 in 10.0 mi ESE 3.5 mph - N/A   Clear
1:56 AM 66.9 °F 57.9 °F 73% 29.96 in 10.0 mi WSW 12.7 mph 18.4 mph N/A   Clear
2:56 AM 66.9 °F 59.0 °F 76% 29.96 in 10.0 mi SSW 6.9 mph - N/A   Partly Cloudy
3:56 AM 66.0 °F 60.1 °F 81% 29.99 in 10.0 mi NW 9.2 mph 23.0 mph N/A   Mostly Cloudy
4:10 AM 66.0 °F 61.0 °F 84% 30.03 in 10.0 mi West 8.1 mph - N/A   Mostly Cloudy
4:25 AM 66.0 °F 61.0 °F 84% 30.03 in 10.0 mi West 8.1 mph - N/A   Mostly Cloudy
4:56 AM 64.9 °F 61.0 °F 87% 30.00 in 10.0 mi WSW 8.1 mph - 0.00 in Rain Light Rain
5:56 AM 64.9 °F 62.1 °F 90% 30.00 in 10.0 mi SSW 5.8 mph - 0.00 in   Mostly Cloudy
6:56 AM 64.9 °F 61.0 °F 87% 30.00 in 10.0 mi WSW 4.6 mph - N/A   Mostly Cloudy
7:56 AM 66.0 °F 61.0 °F 84% 30.02 in 10.0 mi West 6.9 mph - N/A   Clear
8:56 AM 68.0 °F 63.0 °F 84% 30.04 in 10.0 mi North - - N/A   Clear
9:56 AM 71.1 °F 62.1 °F 73% 30.07 in 10.0 mi WNW 16.1 mph - N/A   Scattered Clouds
10:56 AM 73.9 °F 64.0 °F 71% 30.07 in 10.0 mi WNW 11.5 mph - N/A   Scattered Clouds
11:56 AM 73.9 °F 64.0 °F 71% 30.08 in 10.0 mi West 9.2 mph - N/A   Mostly Cloudy
12:56 PM 73.9 °F 63.0 °F 68% 30.08 in 10.0 mi West 4.6 mph - N/A   Mostly Cloudy
1:56 PM 75.0 °F 63.0 °F 66% 30.08 in 10.0 mi Variable 6.9 mph - N/A   Mostly Cloudy
2:56 PM 77.0 °F 63.0 °F 62% 30.07 in 10.0 mi West 9.2 mph - N/A   Mostly Cloudy
3:56 PM 75.9 °F 62.1 °F 62% 30.06 in 10.0 mi WSW 10.4 mph - N/A   Scattered Clouds
4:56 PM 77.0 °F 63.0 °F 62% 30.06 in 10.0 mi WNW 9.2 mph - N/A   Scattered Clouds
5:56 PM 75.9 °F 63.0 °F 64% 30.06 in 10.0 mi West 10.4 mph - N/A   Scattered Clouds
6:56 PM 73.9 °F 63.0 °F 68% 30.06 in 10.0 mi NW 9.2 mph - N/A   Clear
7:56 PM 69.1 °F 62.1 °F 78% 30.07 in 10.0 mi WNW 5.8 mph - N/A   Clear
8:56 PM 68.0 °F 61.0 °F 78% 30.09 in 10.0 mi West 5.8 mph - N/A   Clear
9:56 PM 64.9 °F 61.0 °F 87% 30.12 in 10.0 mi West 6.9 mph - N/A   Clear
10:56 PM 63.0 °F 60.1 °F 90% 30.13 in 10.0 mi West 3.5 mph - N/A   Clear
11:51 PM 62.6 °F 62.6 °F 100% 30.16 in 1.8 mi Calm Calm - N/A   Partly Cloudy
11:56 PM 62.1 °F 61.0 °F 96% 30.14 in 1.0 mi Calm Calm - N/A   Mist